SCP
0 0 0 -0 -0 -0 -0 -0 0 -0 -0 0 0 0 0 0 -0 0 -0 0 0 0 0 0 0 0 0 0 0 0 -0 0 0 0 0 0 0 0
-0 -0 0 -0 -0 0 -0 -0 0 -0 -0 0 0 0 0 0 -0 0 0 -0 -0 0 0 0 0 0 0 0 0 0 -0 -0 -0 0 0 0 0 0
0 0 0 0 0 -0 -0 0 0 0 -0 0 -0 0 -0 0 0 -0 -0 0 0 0 0 -0 0 0 0 0 0 0 0 -0 0 0 0 0 0 0
0 -0 -0 -0 0 0 0 0 0 0 0 0 -0 -0 -0 0 0 0 0 -0 -0 -0 -0 -0 0 -0 -0 -0 -0 0 0 0 0 0 0 0 0 0
0 0 0 0 0 0 0 0 0 0 0 -0 -0 -0 -0 -0 0 0 1 0 -0 -0 -0 0 -0 -0 -0 -0 -0 -0 0 0 0 -0 -0 0 0 0
0 0 0 0 0 0 0 0 0 0 -0 -0 0 -0 -0 0 0 0 -0 -0 0 0 0 0 -0 -0 -0 -0 0 0 0 0 0 0 -0 0 -0 -0
0 0 0 0 0 0 0 0 0 0 -0 -0 -0 -0 -0 0 0 -0 -0 -0 0 0 -0 0 0 -0 -0 0 0 0 0 0 0 0 0 0 0 -0
0 0 0 0 0 0 0 0 0 0 0 0 -0 -0 -0 -0 -0 -0 -0 -0 -0 -0 -0 -0 0 -0 -0 0 0 0 0 0 0 0 0 0 0 0
0 0 0 0 0 0 0 0 0 0 0 0 0 0 0 0 0 -0 -0 -0 -0 -0 -0 -0 -0 -0 0 0 0 0 0 0 0 0 0 0 0 0
1 1 1 0 0 0 0 0 0 0 0 0 1 0 0 0 0 0 0 0 0 -0 -0 -0 0 0 0 -0 0 0 0 0 0 0 0 0 0 0
0 0 0 0 0 0 0 0 0 0 0 0 0 0 0 0 -0 0 0 0 0 -0 0 0 0 0 0 0 0 0 0 0 0 0 0 0 0 0
0 0 0 0 0 0 0 0 0 0 0 0 0 0 0 0 0 0 0 0 0 0 0 0 0 1 0 0 0 0 0 0 0 0 0 0 0 0
0 0 0 0 0 0 0 0 0 0 0 0 0 0 0 0 0 0 0 0 0 0 0 0 0 0 0 0 0 0 0 0 0 0 0 0 0 0
0 0 0 0 0 0 0 0 0 0 0 0 0 0 0 0 0 0 0 0 0 0 0 1 0 0 0 0 0 0 0 0 0 0 1 0 0 0
0 0 0 0 0 0 -0 0 0 0 0 0 0 0 0 0 0 0 0 0 0 0 0 0 0 0 0 0 0 0 0 0 0 1 1 1 1 0
0 0 0 0 0 0 0 0 0 0 0 0 0 0 0 0 0 0 0 0 0 0 0 0 0 0 0 0 0 0 0 0 0 0 0 0 0 0
0 0 0 0 0 0 0 0 0 0 0 0 0 0 0 0 0 0 0 0 0 0 0 0 0 0 0 0 0 0 0 0 0 0 0 0 0 0
0 0 0 0 0 0 0 0 0 0 0 0 0 0 0 0 0 0 0 0 0 0 0 0 0 0 0 0 0 0 0 0 0 0 0 0 0 0
0 0 0 0 0 0 0 0 0 0 0 0 0 0 0 0 0 0 0 0 0 0 0 0 0 -0 0 0 0 0 0 0 0 0 0 0 0 0
0 0 0 0 0 0 0 0 0 0 0 0 0 0 0 0 0 0 0 0 0 0 0 0 0 0 0 0 0 0 -0 0 0 0 0 0 0 0
0 0 0 0 0 0 0 0 0 0 0 0 0 0 0 0 0 0 0 0 0 0 0 0 0 0 0 0 0 0 0 0 0 0 0 0 0 0
0 0 0 0 0 0 0 0 0 0 0 0 0 0 0 0 0 0 0 0 0 0 0 0 0 0 0 0 0 0 0 0 0 0 0 0 0 0
0 0 0 0 0 0 0 0 0 0 0 0 0 0 0 0 0 0 0 0 0 0 0 0 0 0 0 0 -0 -0 -0 -0 0 0 0 0 0 0
Wind_Speed_500mb
11 15 14 12 13 14 12 14 17 26 31 14 18 23 15 24 35 35 37 36 30 32 45 43 36 34 32 31 29 29 29 28 28 31 31 29 25 25
14 16 19 16 13 15 17 19 19 23 29 28 30 29 29 36 34 44 33 33 32 26 43 48 39 34 29 32 32 31 31 33 32 31 32 30 28 25
16 14 15 16 16 17 18 16 18 21 27 26 26 30 37 24 36 28 29 31 28 36 35 47 42 39 39 40 38 35 37 38 37 30 27 29 28 24
15 14 14 11 12 14 11 17 18 25 20 25 20 24 26 23 24 36 28 20 29 32 41 42 41 46 41 42 41 40 40 38 31 30 20 21 25 27
15 15 15 15 15 16 21 17 14 17 22 23 29 21 26 29 21 29 30 24 30 32 34 32 37 40 45 41 41 39 36 37 31 32 18 19 20 23
17 19 16 17 18 18 15 17 20 18 19 25 32 28 30 25 18 27 32 30 31 33 33 33 38 44 41 40 36 39 43 51 39 31 21 21 24 24
20 20 21 25 27 30 25 21 24 18 22 25 23 27 32 31 31 29 37 36 38 35 36 32 39 32 33 34 30 27 48 55 42 29 24 26 28 28
18 18 19 27 27 29 24 24 26 27 29 26 28 31 38 36 33 34 34 39 40 29 41 40 28 29 29 33 29 37 55 47 34 24 24 25 28 31
20 26 20 21 24 23 27 27 26 27 30 33 36 34 37 35 39 43 42 45 45 45 32 42 39 41 30 31 35 44 43 35 41 37 37 41 39 40
28 26 27 33 33 28 21 13 17 19 26 26 30 39 44 45 46 46 45 43 41 39 38 44 33 37 38 31 36 41 24 42 42 42 45 41 44 46
33 29 27 24 20 14 17 17 13 13 17 32 29 25 25 24 23 30 21 30 38 37 32 42 31 40 35 31 33 32 38 42 45 46 43 44 44 51
14 16 18 16 15 13 14 15 17 21 23 20 21 24 24 27 24 13 17 19 28 31 26 41 42 44 41 24 26 33 39 43 43 40 44 44 45 45
6 6 13 12 11 13 15 16 17 21 18 21 18 12 12 13 23 24 28 28 27 28 29 37 34 38 40 47 34 35 39 37 39 43 42 42 42 44
14 12 11 13 17 19 21 20 20 17 17 19 16 14 15 19 23 24 26 33 33 34 29 36 36 38 42 43 41 38 38 40 41 48 40 40 44 43
15 16 19 22 22 19 23 16 13 13 14 11 9 15 21 23 28 25 27 30 26 29 26 35 42 45 39 40 47 51 50 46 40 42 44 36 42 42
22 25 23 19 14 8 9 5 6 9 10 12 16 18 19 20 21 26 30 34 34 29 28 26 30 34 40 42 47 50 50 54 49 49 46 46 47 43
19 15 17 14 16 15 13 5 6 3 8 13 13 20 20 20 23 25 28 30 29 35 39 38 42 43 38 41 48 46 51 46 39 47 56 58 59 57
2 3 5 3 5 6 9 11 17 16 17 18 20 19 19 22 26 26 27 29 33 35 40 43 52 59 52 42 25 37 53 58 62 68 70 75 76 58
8 9 8 6 6 8 10 12 12 17 18 20 22 25 26 31 36 34 34 31 33 37 41 46 48 49 56 57 67 55 66 75 74 73 62 62 66 68
8 8 7 6 5 6 8 9 12 14 19 21 22 24 27 29 30 31 33 37 41 51 53 48 41 41 49 65 83 89 65 63 56 66 76 83 89 93
6 6 6 5 4 6 7 10 13 15 18 20 22 25 27 30 32 33 37 39 44 41 47 46 48 58 62 60 69 72 73 74 76 79 87 97 107 112
6 4 5 4 5 6 9 11 13 15 18 19 20 23 28 33 34 39 41 45 46 46 50 53 56 56 55 57 72 81 86 84 84 84 79 78 82 94
5 4 3 4 6 9 11 14 15 16 18 21 27 33 39 40 40 39 40 41 44 49 52 58 58 56 57 62 73 81 84 83 74 77 94 88 91 95
Wind_Direction_500mb
252 273 257 284 267 276 281 288 298 305 309 329 6 338 315 318 319 324 321 317 336 334 347 344 338 334 338 345 346 345 347 346 335 333 335 336 333 344
245 250 263 270 293 272 280 284 285 284 289 294 308 320 327 320 323 312 317 338 328 330 336 345 341 342 341 342 339 337 335 335 329 323 330 331 332 334
251 254 266 270 260 272 293 295 283 288 286 297 312 307 311 321 325 328 334 337 339 324 328 339 340 341 334 331 329 326 326 329 328 320 314 325 328 329
258 254 257 261 274 301 305 291 288 291 290 299 304 316 312 315 317 330 334 340 332 321 335 329 336 336 345 342 335 324 324 325 326 328 296 315 324 329
250 251 254 254 270 272 270 275 298 303 318 302 310 310 312 306 306 322 321 326 331 333 329 330 324 338 342 338 340 343 347 341 329 331 295 301 309 319
250 255 256 262 271 278 282 269 290 284 294 290 304 301 305 329 340 334 325 325 327 329 327 334 328 331 328 322 322 326 336 337 332 327 307 296 301 301
253 256 264 248 250 265 266 273 274 293 286 300 305 307 316 331 329 319 313 314 317 319 320 317 318 327 323 326 313 319 329 325 324 325 320 308 305 302
233 255 267 276 276 270 279 284 289 290 290 289 291 290 294 302 300 300 302 307 311 316 314 316 327 318 325 321 323 323 325 320 317 324 317 314 310 307
238 239 222 256 262 264 288 290 286 282 281 283 285 287 286 296 297 302 304 301 303 303 308 306 313 313 310 320 316 317 317 332 332 321 316 309 301 297
236 247 244 251 272 281 285 296 279 286 288 286 276 275 287 292 295 299 307 317 318 312 316 320 324 314 313 301 322 321 321 335 329 337 339 342 324 306
238 241 244 252 255 258 284 288 319 311 289 294 305 305 312 323 340 343 331 317 329 327 330 321 323 311 314 314 317 320 324 325 326 324 331 332 330 333
231 229 235 246 259 273 288 302 312 322 333 339 351 343 346 354 347 333 318 320 315 320 325 338 325 331 320 322 312 312 316 326 324 325 327 327 324 320
171 160 250 254 280 300 301 309 320 326 349 360 327 331 332 326 344 332 323 321 324 319 320 322 320 319 314 315 320 319 308 309 316 319 316 316 315 316
219 262 289 295 299 310 307 313 321 331 343 317 321 327 319 329 326 333 322 308 323 338 338 323 322 325 320 322 319 321 321 319 313 307 303 307 309 302
260 271 280 289 297 320 328 354 20 346 352 320 325 331 338 342 342 334 331 329 337 328 324 316 328 322 315 312 310 313 318 320 319 316 318 307 307 308
279 283 287 289 322 10 23 14 347 355 16 356 352 342 345 341 340 333 335 337 335 330 324 320 309 306 309 311 306 313 319 313 310 316 314 306 311 302
272 279 269 260 238 226 234 259 299 340 342 353 347 346 347 343 339 329 339 331 331 325 324 323 311 308 305 314 316 317 310 306 308 306 297 291 292 308
126 121 35 40 49 344 354 2 349 338 345 342 341 338 340 347 331 345 339 337 333 330 327 325 323 326 326 315 307 301 290 292 286 288 294 301 304 299
118 121 106 66 48 45 31 16 13 352 350 5 1 353 351 346 347 347 336 338 332 327 324 328 332 329 323 314 304 299 301 296 298 298 308 308 299 292
134 122 108 84 53 48 38 24 14 358 5 2 357 350 348 347 342 339 336 331 328 327 331 329 324 316 313 306 302 311 317 316 310 295 290 285 279 280
121 105 96 78 49 29 20 12 20 357 359 2 355 352 346 343 338 333 329 327 324 326 320 318 314 305 313 313 305 303 304 298 297 292 289 290 290 293
121 110 81 53 19 10 8 6 9 1 356 352 349 343 338 338 335 332 330 327 324 320 316 313 317 317 315 310 305 305 306 307 300 303 299 293 289 290
132 133 67 37 17 1 357 2 358 356 348 342 337 335 335 334 330 326 324 321 318 315 316 315 315 313 310 308 306 305 304 306 307 302 295 297 300 300
Wind_Speed_850mb
11 15 14 12 13 14 12 14 17 26 31 14 18 23 15 24 35 35 37 36 30 32 45 43 36 34 32 31 29 29 29 28 28 31 31 29 25 25
14 16 19 16 13 15 17 19 19 23 29 28 30 29 29 36 34 44 33 33 32 26 43 48 39 34 29 32 32 31 31 33 32 31 32 30 28 25
16 14 15 16 16 17 18 16 18 21 27 26 26 30 37 24 36 28 29 31 28 36 35 47 42 39 39 40 38 35 37 38 37 30 27 29 28 24
15 14 14 11 12 14 11 17 18 25 20 25 20 24 26 23 24 36 28 20 29 32 41 42 41 46 41 42 41 40 40 38 31 30 20 21 25 27
15 15 15 15 15 16 21 17 14 17 22 23 29 21 26 29 21 29 30 24 30 32 34 32 37 40 45 41 41 39 36 37 31 32 18 19 20 23
17 19 16 17 18 18 15 17 20 18 19 25 32 28 30 25 18 27 32 30 31 33 33 33 38 44 41 40 36 39 43 51 39 31 21 21 24 24
20 20 21 25 27 30 25 21 24 18 22 25 23 27 32 31 31 29 37 36 38 35 36 32 39 32 33 34 30 27 48 55 42 29 24 26 28 28
18 18 19 27 27 29 24 24 26 27 29 26 28 31 38 36 33 34 34 39 40 29 41 40 28 29 29 33 29 37 55 47 34 24 24 25 28 31
20 26 20 21 24 23 27 27 26 27 30 33 36 34 37 35 39 43 42 45 45 45 32 42 39 41 30 31 35 44 43 35 41 37 37 41 39 40
28 26 27 33 33 28 21 13 17 19 26 26 30 39 44 45 46 46 45 43 41 39 38 44 33 37 38 31 36 41 24 42 42 42 45 41 44 46
33 29 27 24 20 14 17 17 13 13 17 32 29 25 25 24 23 30 21 30 38 37 32 42 31 40 35 31 33 32 38 42 45 46 43 44 44 51
14 16 18 16 15 13 14 15 17 21 23 20 21 24 24 27 24 13 17 19 28 31 26 41 42 44 41 24 26 33 39 43 43 40 44 44 45 45
6 6 13 12 11 13 15 16 17 21 18 21 18 12 12 13 23 24 28 28 27 28 29 37 34 38 40 47 34 35 39 37 39 43 42 42 42 44
14 12 11 13 17 19 21 20 20 17 17 19 16 14 15 19 23 24 26 33 33 34 29 36 36 38 42 43 41 38 38 40 41 48 40 40 44 43
15 16 19 22 22 19 23 16 13 13 14 11 9 15 21 23 28 25 27 30 26 29 26 35 42 45 39 40 47 51 50 46 40 42 44 36 42 42
22 25 23 19 14 8 9 5 6 9 10 12 16 18 19 20 21 26 30 34 34 29 28 26 30 34 40 42 47 50 50 54 49 49 46 46 47 43
19 15 17 14 16 15 13 5 6 3 8 13 13 20 20 20 23 25 28 30 29 35 39 38 42 43 38 41 48 46 51 46 39 47 56 58 59 57
2 3 5 3 5 6 9 11 17 16 17 18 20 19 19 22 26 26 27 29 33 35 40 43 52 59 52 42 25 37 53 58 62 68 70 75 76 58
8 9 8 6 6 8 10 12 12 17 18 20 22 25 26 31 36 34 34 31 33 37 41 46 48 49 56 57 67 55 66 75 74 73 62 62 66 68
8 8 7 6 5 6 8 9 12 14 19 21 22 24 27 29 30 31 33 37 41 51 53 48 41 41 49 65 83 89 65 63 56 66 76 83 89 93
6 6 6 5 4 6 7 10 13 15 18 20 22 25 27 30 32 33 37 39 44 41 47 46 48 58 62 60 69 72 73 74 76 79 87 97 107 112
6 4 5 4 5 6 9 11 13 15 18 19 20 23 28 33 34 39 41 45 46 46 50 53 56 56 55 57 72 81 86 84 84 84 79 78 82 94
5 4 3 4 6 9 11 14 15 16 18 21 27 33 39 40 40 39 40 41 44 49 52 58 58 56 57 62 73 81 84 83 74 77 94 88 91 95
Wind_Direction_850mb
252 273 257 284 267 276 281 288 298 305 309 329 6 338 315 318 319 324 321 317 336 334 347 344 338 334 338 345 346 345 347 346 335 333 335 336 333 344
245 250 263 270 293 272 280 284 285 284 289 294 308 320 327 320 323 312 317 338 328 330 336 345 341 342 341 342 339 337 335 335 329 323 330 331 332 334
251 254 266 270 260 272 293 295 283 288 286 297 312 307 311 321 325 328 334 337 339 324 328 339 340 341 334 331 329 326 326 329 328 320 314 325 328 329
258 254 257 261 274 301 305 291 288 291 290 299 304 316 312 315 317 330 334 340 332 321 335 329 336 336 345 342 335 324 324 325 326 328 296 315 324 329
250 251 254 254 270 272 270 275 298 303 318 302 310 310 312 306 306 322 321 326 331 333 329 330 324 338 342 338 340 343 347 341 329 331 295 301 309 319
250 255 256 262 271 278 282 269 290 284 294 290 304 301 305 329 340 334 325 325 327 329 327 334 328 331 328 322 322 326 336 337 332 327 307 296 301 301
253 256 264 248 250 265 266 273 274 293 286 300 305 307 316 331 329 319 313 314 317 319 320 317 318 327 323 326 313 319 329 325 324 325 320 308 305 302
233 255 267 276 276 270 279 284 289 290 290 289 291 290 294 302 300 300 302 307 311 316 314 316 327 318 325 321 323 323 325 320 317 324 317 314 310 307
238 239 222 256 262 264 288 290 286 282 281 283 285 287 286 296 297 302 304 301 303 303 308 306 313 313 310 320 316 317 317 332 332 321 316 309 301 297
236 247 244 251 272 281 285 296 279 286 288 286 276 275 287 292 295 299 307 317 318 312 316 320 324 314 313 301 322 321 321 335 329 337 339 342 324 306
238 241 244 252 255 258 284 288 319 311 289 294 305 305 312 323 340 343 331 317 329 327 330 321 323 311 314 314 317 320 324 325 326 324 331 332 330 333
231 229 235 246 259 273 288 302 312 322 333 339 351 343 346 354 347 333 318 320 315 320 325 338 325 331 320 322 312 312 316 326 324 325 327 327 324 320
171 160 250 254 280 300 301 309 320 326 349 360 327 331 332 326 344 332 323 321 324 319 320 322 320 319 314 315 320 319 308 309 316 319 316 316 315 316
219 262 289 295 299 310 307 313 321 331 343 317 321 327 319 329 326 333 322 308 323 338 338 323 322 325 320 322 319 321 321 319 313 307 303 307 309 302
260 271 280 289 297 320 328 354 20 346 352 320 325 331 338 342 342 334 331 329 337 328 324 316 328 322 315 312 310 313 318 320 319 316 318 307 307 308
279 283 287 289 322 10 23 14 347 355 16 356 352 342 345 341 340 333 335 337 335 330 324 320 309 306 309 311 306 313 319 313 310 316 314 306 311 302
272 279 269 260 238 226 234 259 299 340 342 353 347 346 347 343 339 329 339 331 331 325 324 323 311 308 305 314 316 317 310 306 308 306 297 291 292 308
126 121 35 40 49 344 354 2 349 338 345 342 341 338 340 347 331 345 339 337 333 330 327 325 323 326 326 315 307 301 290 292 286 288 294 301 304 299
118 121 106 66 48 45 31 16 13 352 350 5 1 353 351 346 347 347 336 338 332 327 324 328 332 329 323 314 304 299 301 296 298 298 308 308 299 292
134 122 108 84 53 48 38 24 14 358 5 2 357 350 348 347 342 339 336 331 328 327 331 329 324 316 313 306 302 311 317 316 310 295 290 285 279 280
121 105 96 78 49 29 20 12 20 357 359 2 355 352 346 343 338 333 329 327 324 326 320 318 314 305 313 313 305 303 304 298 297 292 289 290 290 293
121 110 81 53 19 10 8 6 9 1 356 352 349 343 338 338 335 332 330 327 324 320 316 313 317 317 315 310 305 305 306 307 300 303 299 293 289 290
132 133 67 37 17 1 357 2 358 356 348 342 337 335 335 334 330 326 324 321 318 315 316 315 315 313 310 308 306 305 304 306 307 302 295 297 300 300